278P/McNaught (2020)

Japanese version
Home page
Updated on March 22, 2020

---------------------------------------------------------------------

* Profile

* Orbital Elements

Epoch 2020 Sept. 28.0 TT = JDT 2459120.5
T 2020 Sept. 12.06470 TT                                Bell
q   2.0870026            (2000.0)            P               Q
n   0.13883594     Peri.  238.08845     -0.28495582     +0.95803905
a   3.6937553      Node    15.44720     -0.83545133     -0.23237598
e   0.4349916      Incl.    6.68495     -0.46991621     -0.16781710
P   7.10
From 170 observations 2006 May 22-2020 Feb. 5, mean residual 0".6.

* Magnitudes Graph

        m1 = 14.5 + 5 log d + 10.0 log r

---------------------------------------------------------------------

The orbital elements are published on M.P.E.C. 2020-E26.
The magnitudes graphs are made with Comet for Windows.

---------------------------------------------------------------------

Copyright(C) Seiichi Yoshida (comet@aerith.net). All rights reserved.